Temperature
18 18 18 18 18 18 18 17 17 17 17 17 17 17 16 16 16 16 16 16 16 16 16 16 15 15 15 15 15 15 15 15 15 15 14 14 14 14 14 14 14 14 14
18 18 18 18 18 18 18 17 17 17 17 17 17 17 16 16 16 16 16 16 16 15 15 15 15 15 15 15 15 15 15 14 14 14 14 14 14 14 14 14 14 14 14
18 18 18 18 18 17 17 17 17 17 17 17 17 16 16 16 16 16 16 16 15 15 15 15 15 15 15 15 15 15 15 14 14 14 14 14 13 13 13 13 13 13 13
18 18 18 18 18 17 17 17 17 17 17 17 16 16 16 16 16 16 16 15 15 15 15 15 15 15 15 15 14 14 14 14 14 14 14 14 13 13 13 13 13 13 13
18 18 18 18 18 17 17 17 17 17 17 16 16 16 16 16 16 15 15 15 15 15 15 15 15 15 14 14 14 14 14 14 14 14 14 14 13 13 13 12 12 12 12
18 18 18 18 17 17 17 17 17 17 17 16 16 16 16 16 15 15 15 15 15 15 15 15 15 14 14 14 14 14 14 14 14 13 13 13 13 13 13 12 12 12 12
18 18 18 17 17 17 17 17 17 17 17 16 16 16 16 15 15 15 15 15 15 15 15 15 14 14 14 14 14 14 14 13 13 13 13 13 13 13 13 13 12 12 12
18 18 18 18 17 17 17 17 17 17 16 16 16 16 16 15 15 15 15 15 15 15 15 14 14 14 14 14 14 14 13 13 13 13 13 13 13 13 13 12 12 12 11
18 17 17 17 17 17 17 17 17 16 16 16 16 16 15 15 15 15 15 15 15 14 14 14 14 14 14 14 13 13 13 13 13 13 13 13 13 12 12 12 12 12 11
17 17 17 17 17 17 17 17 17 16 16 16 16 15 15 15 15 15 15 14 14 14 14 14 14 14 14 13 13 13 13 13 13 13 13 12 12 12 12 12 12 11 11
18 17 17 17 17 17 17 16 16 16 16 16 16 15 15 15 15 14 14 14 14 14 14 14 14 14 13 13 13 13 13 12 12 12 12 12 12 12 12 11 11 11 11
18 17 17 17 17 17 16 16 16 16 16 16 15 15 15 15 14 14 14 14 14 14 14 14 14 13 13 13 13 13 12 12 12 12 12 12 12 11 11 11 11 11 11
17 17 17 17 17 16 16 16 16 16 16 15 15 15 15 14 14 14 14 14 14 14 13 13 13 13 13 13 12 12 12 12 12 12 12 11 11 11 11 11 11 11 10
17 17 16 16 16 16 16 16 16 15 15 15 15 15 14 14 14 14 14 14 13 13 13 13 13 13 13 12 12 12 12 12 12 11 11 11 11 11 11 10 10 10 10
16 16 16 16 16 16 16 16 15 15 15 15 15 14 14 14 14 14 14 14 13 13 13 13 13 13 12 12 12 12 12 12 11 11 11 11 11 10 10 10 10 10 10
16 16 16 16 16 16 16 15 15 15 15 15 14 14 14 14 14 14 13 13 13 13 13 13 12 12 12 12 12 12 11 11 11 11 11 11 10 10 10 10 10 10 9
16 16 16 16 16 16 16 15 15 15 15 14 14 14 14 14 13 13 13 13 13 13 13 13 12 12 12 12 12 11 11 11 11 11 11 10 10 10 10 10 10 9 9
16 16 16 16 16 16 15 15 15 14 14 14 14 13 13 13 13 13 13 13 12 12 12 12 12 12 12 12 11 11 11 11 11 10 10 10 10 10 10 9 9 9 9
16 16 16 16 16 15 15 15 14 14 14 14 14 13 13 13 13 13 13 12 12 12 12 12 12 12 12 11 11 11 11 11 10 10 10 10 10 10 9 9 9 9 9
16 16 16 15 15 15 14 14 14 14 14 13 13 13 13 13 12 12 12 12 12 12 12 12 11 11 11 11 11 11 10 10 10 10 10 10 9 9 9 9 9 9 9
16 15 15 15 15 14 14 14 14 14 13 13 13 13 12 12 12 12 12 12 11 11 11 11 11 11 11 11 11 10 10 10 10 10 10 10 9 9 9 9 9 8 8
15 15 15 15 14 14 14 14 14 13 13 13 13 12 12 12 12 12 11 11 11 11 11 11 11 11 11 11 10 10 10 10 10 10 10 9 9 9 9 9 8 8 8
15 15 14 14 14 14 13 13 13 13 13 12 12 12 12 12 11 11 11 11 11 11 11 11 11 11 10 10 10 10 10 10 9 9 9 9 9 9 8 8 8 8 8
14 14 14 14 13 13 13 13 13 12 12 12 12 12 12 11 11 11 11 11 11 10 10 10 10 10 10 10 10 9 9 9 9 9 9 9 8 8 8 8 8 8 8
14 13 13 13 13 13 13 12 12 12 12 12 12 11 11 11 11 11 10 10 10 10 10 10 10 10 10 10 9 9 9 9 9 8 8 8 8 8 8 8 8 7 7
13 13 13 12 12 12 12 12 12 12 12 11 11 11 11 11 10 10 10 10 10 9 9 9 9 9 9 9 9 9 9 8 8 8 8 8 8 8 8 8 7 7 7
Wind_Speed
2 0 1 1 2 2 2 3 3 3 3 2 2 2 1 1 2 2 2 3 4 5 4 3 3 3 3 3 4 4 4 3 2 3 3 4 4 4 4 4 5 6 7
0 0 1 2 2 2 2 2 3 3 3 2 2 2 2 2 1 2 3 3 4 4 4 4 3 3 4 4 3 3 3 1 2 2 2 2 4 4 4 4 4 4 6
4 3 2 2 2 2 3 3 3 3 3 3 3 3 3 3 2 2 2 1 3 4 4 4 4 3 3 3 2 3 3 2 1 2 3 2 1 1 3 4 4 4 4
4 4 3 3 3 3 3 3 4 4 3 4 4 5 3 2 1 0 0 1 3 4 4 4 4 3 3 3 2 2 2 3 1 1 1 1 3 2 1 3 3 4 3
5 5 5 4 3 2 2 3 4 3 3 4 4 5 3 2 1 1 2 2 2 3 3 4 4 3 2 2 2 2 2 2 2 2 1 2 2 2 2 1 2 3 3
5 4 3 3 2 2 2 3 4 3 3 4 4 5 5 4 3 2 2 1 1 1 2 3 3 3 2 2 2 2 2 2 2 2 2 2 2 2 2 2 1 1 2
5 5 4 4 3 3 3 3 4 3 3 4 4 4 5 5 5 3 3 2 1 1 0 2 2 2 3 3 3 3 2 2 2 2 1 1 1 2 2 3 2 1 1
4 5 6 6 5 5 4 4 4 4 3 3 3 3 4 3 3 3 3 3 3 2 2 2 2 3 3 4 4 3 2 2 2 2 2 1 1 2 2 3 3 1 1
5 5 5 5 5 5 5 6 6 4 4 4 3 3 3 3 3 3 3 2 2 2 3 3 3 3 3 4 4 3 2 3 2 2 2 1 1 1 1 2 3 3 2
3 4 4 5 5 5 4 4 5 5 4 4 4 3 3 3 3 3 3 3 2 2 3 3 2 2 3 3 3 2 2 3 2 1 2 2 1 1 1 2 1 2 3
4 4 4 4 4 4 4 4 4 3 3 3 3 3 3 3 3 3 3 3 2 3 3 3 3 3 3 3 3 2 2 2 1 1 2 1 2 2 1 1 1 1 2
4 3 3 3 3 4 4 4 4 4 3 3 3 3 3 2 2 2 2 2 3 3 3 3 3 3 3 3 3 3 2 2 2 1 2 1 2 2 1 1 1 1 2
2 2 3 3 4 4 4 4 4 4 3 3 3 3 3 2 2 2 2 3 3 3 3 3 4 3 3 3 3 3 3 3 3 3 3 2 3 2 1 1 1 1 1
2 3 3 3 4 4 4 4 4 3 3 4 4 3 3 3 3 3 2 3 3 3 3 3 3 3 3 3 3 3 3 2 2 2 3 3 4 4 3 2 2 2 2
1 2 3 3 4 4 4 4 4 3 4 4 4 3 3 2 2 2 2 2 3 3 3 3 2 2 3 3 4 4 3 3 2 1 2 3 4 4 4 3 3 3 2
2 2 2 3 4 4 4 4 4 4 4 4 4 3 2 2 2 2 2 2 2 2 2 3 3 3 2 3 6 5 4 3 3 2 2 2 2 3 4 4 5 5 4
3 3 3 4 4 4 5 5 4 4 4 4 3 2 3 2 2 2 3 3 3 3 3 3 3 3 4 5 5 6 4 4 4 4 3 2 2 1 1 2 2 3 5
4 4 3 3 3 2 3 3 3 4 4 3 3 3 3 3 2 2 3 3 3 3 3 4 4 4 4 5 5 5 4 3 4 4 5 4 3 3 3 2 2 3 3
4 4 4 3 3 3 3 4 3 3 3 3 3 3 4 4 3 3 3 3 3 3 4 4 4 5 5 6 6 5 3 3 4 4 4 4 5 6 4 3 3 2 3
2 2 2 2 2 3 4 4 3 3 4 4 4 3 3 4 4 4 3 3 3 4 4 4 4 5 5 6 7 6 3 3 3 3 4 6 6 7 6 5 5 4 4
2 2 3 3 4 3 5 4 3 5 6 4 3 3 3 4 4 3 3 3 3 3 3 4 4 4 6 6 7 7 5 5 4 4 4 5 8 8 7 6 6 7 4
2 3 3 3 3 4 5 4 5 6 4 3 3 3 3 3 3 3 2 2 3 3 4 4 4 4 4 5 6 8 8 6 5 5 5 5 7 8 7 6 6 6 3
2 2 3 3 2 3 5 6 6 4 4 4 4 4 3 3 3 3 3 3 3 4 4 4 4 4 3 4 6 8 8 7 5 5 6 6 6 6 5 6 6 4 3
3 3 3 3 3 3 4 6 4 4 4 4 4 3 3 3 3 3 4 4 4 4 4 4 5 4 3 3 3 4 4 5 5 3 4 4 4 3 3 3 3 3 4
3 3 4 5 5 4 4 4 5 5 5 5 4 4 4 4 3 3 3 4 5 5 5 5 5 5 6 7 7 5 4 4 4 2 1 1 1 2 2 2 3 3 3
3 3 4 5 4 4 4 4 4 5 6 5 4 4 3 3 3 3 2 3 4 5 6 5 5 6 7 7 7 7 7 6 5 3 2 3 4 5 4 4 4 4 4
Wind_Direction
260 345 128 142 141 136 135 140 128 123 117 111 113 106 91 64 49 48 79 103 111 114 112 111 111 112 114 117 113 107 92 79 91 83 56 35 41 46 36 35 40 37 36
232 125 102 124 157 163 159 157 147 139 142 139 130 121 115 92 72 41 58 92 116 125 126 122 119 114 112 104 106 112 106 82 66 102 94 33 12 20 28 26 37 29 34
205 201 174 160 161 178 181 176 164 150 148 129 106 90 69 55 45 34 31 51 117 121 120 127 124 116 116 124 126 131 129 134 51 73 127 133 198 340 2 21 29 23 27
203 196 188 182 190 200 178 164 159 152 149 137 134 134 131 136 180 172 105 59 91 108 118 123 121 119 115 121 135 120 126 136 145 60 61 126 153 149 5 353 6 17 24
197 193 194 194 194 181 162 154 147 146 145 143 147 139 132 141 121 95 84 72 56 76 101 120 118 122 120 123 117 108 108 129 146 149 128 92 76 110 150 247 332 357 353
194 190 185 166 162 149 149 145 141 139 140 144 144 150 152 146 131 128 124 90 54 46 73 106 114 122 127 131 131 124 121 118 115 124 137 150 152 165 154 181 221 294 315
187 182 177 173 172 166 163 149 147 151 149 149 157 166 164 158 163 170 164 152 131 123 134 121 125 127 136 132 126 117 115 119 118 125 137 147 158 155 150 154 181 223 307
185 193 193 187 184 181 172 163 158 166 164 165 171 164 160 161 170 173 167 171 179 184 163 138 128 125 122 119 119 109 118 106 111 109 113 118 133 138 152 160 157 156 327
196 200 198 191 188 185 183 180 170 175 177 176 166 157 157 161 169 169 171 180 183 166 144 138 131 122 122 123 120 109 113 108 108 110 114 109 108 123 137 145 157 161 184
201 202 198 198 192 184 177 170 169 177 180 175 172 165 170 171 163 158 173 180 179 158 143 137 129 124 117 113 114 111 110 109 102 115 108 101 103 97 106 128 122 140 163
207 205 202 199 179 158 153 159 162 162 167 171 164 156 167 165 159 165 181 179 171 159 154 154 141 136 131 128 124 123 121 121 111 107 121 117 119 110 98 99 104 111 131
208 198 189 171 163 160 158 167 167 166 172 162 151 151 149 150 156 173 186 165 156 158 160 153 145 147 144 145 146 152 144 147 154 159 140 147 132 120 130 126 121 150 152
198 176 173 177 182 178 172 175 171 172 161 142 140 142 147 154 172 183 178 164 161 156 148 152 160 165 163 160 162 161 159 167 177 176 170 182 153 158 166 159 157 161 141
198 188 192 198 195 184 181 179 180 172 161 147 148 156 175 183 188 180 170 170 165 161 164 168 175 178 172 169 168 159 160 165 175 183 185 191 186 190 185 183 183 154 126
212 209 201 198 195 187 187 185 184 174 167 160 166 187 189 184 182 175 173 164 164 174 173 167 174 175 177 183 174 170 168 169 173 193 208 213 207 202 192 193 184 162 157
225 223 209 199 201 201 198 191 191 184 167 173 193 188 165 167 180 187 172 160 168 171 161 175 184 194 210 194 178 172 178 180 183 203 231 240 220 219 218 211 193 179 177
217 207 211 212 215 209 194 194 197 179 172 180 188 186 174 175 195 194 169 180 188 179 183 196 197 215 229 207 192 184 182 191 201 205 209 229 226 195 203 223 221 219 216
213 215 215 213 208 187 181 173 160 168 175 182 189 190 186 195 198 189 196 199 196 193 206 213 213 221 236 221 209 195 184 202 214 213 207 210 219 215 199 195 212 238 246
218 211 205 202 180 173 164 140 147 160 164 184 199 200 193 196 195 202 216 214 199 210 218 220 216 220 238 229 214 195 187 209 226 226 217 213 218 229 209 185 206 249 273
223 205 183 159 166 181 152 145 171 175 200 211 212 200 189 193 203 213 218 220 203 217 220 227 225 225 232 231 217 200 188 209 228 234 232 228 227 230 214 197 200 228 249
219 187 165 175 195 177 156 169 195 213 219 211 201 202 202 208 213 212 211 213 212 212 223 232 236 235 236 235 226 208 195 206 218 228 235 236 234 235 228 216 212 228 223
211 187 181 205 199 172 168 190 222 227 209 189 194 210 214 219 215 200 213 212 203 211 228 235 245 245 242 234 234 222 215 208 208 230 234 234 233 233 232 227 230 227 208
223 203 196 213 214 191 185 206 235 214 185 189 208 219 217 219 208 200 206 215 211 214 227 229 239 249 244 237 236 232 231 225 222 236 239 235 232 233 234 235 228 214 193
232 211 193 214 233 221 212 221 229 196 181 197 215 216 210 221 219 217 212 209 216 220 225 231 238 245 249 243 238 230 232 231 235 242 245 239 232 220 227 231 232 222 211
246 214 211 220 231 228 228 228 213 189 190 201 210 213 212 211 217 222 223 218 222 217 220 231 230 230 241 241 230 221 224 219 218 199 181 204 214 221 234 238 235 224 217
238 228 228 227 233 230 238 238 213 190 188 202 210 211 212 213 211 219 253 251 237 242 238 240 236 242 247 248 231 230 232 225 199 179 207 226 226 224 226 228 233 227 223
Height
1537 1538 1539 1540 1541 1542 1543 1544 1545 1546 1547 1548 1548 1549 1549 1550 1551 1551 1552 1552 1553 1553 1554 1554 1555 1555 1556 1556 1557 1557 1557 1557 1557 1557 1556 1556 1556 1556 1556 1556 1555 1555 1554
1536 1537 1538 1539 1540 1541 1543 1544 1545 1546 1547 1548 1549 1549 1550 1550 1551 1551 1551 1552 1552 1553 1554 1554 1555 1555 1556 1556 1556 1556 1556 1557 1557 1557 1556 1557 1558 1556 1556 1556 1556 1555 1555
1535 1536 1537 1538 1540 1541 1542 1543 1545 1546 1547 1548 1549 1549 1549 1550 1550 1551 1551 1552 1552 1553 1553 1554 1554 1555 1556 1556 1556 1556 1556 1556 1557 1557 1557 1557 1556 1557 1557 1556 1556 1556 1555
1534 1536 1537 1538 1539 1540 1541 1543 1544 1546 1547 1548 1548 1549 1549 1549 1550 1550 1551 1551 1552 1552 1553 1553 1554 1554 1555 1555 1555 1556 1556 1556 1556 1556 1556 1557 1556 1556 1556 1557 1556 1556 1555
1532 1534 1536 1537 1538 1539 1541 1542 1544 1545 1546 1547 1547 1548 1548 1549 1549 1550 1550 1551 1551 1552 1552 1553 1553 1553 1554 1554 1554 1555 1555 1555 1555 1555 1555 1555 1556 1555 1555 1555 1556 1555 1555
1531 1533 1535 1536 1537 1539 1540 1541 1543 1544 1545 1546 1546 1547 1547 1548 1548 1549 1549 1550 1551 1551 1552 1552 1552 1552 1553 1553 1553 1554 1554 1554 1554 1554 1554 1554 1554 1554 1554 1554 1554 1554 1554
1530 1531 1533 1534 1536 1537 1539 1540 1542 1543 1544 1545 1545 1546 1546 1547 1547 1548 1548 1549 1549 1550 1550 1551 1551 1551 1552 1552 1553 1553 1553 1553 1553 1553 1553 1553 1553 1553 1553 1553 1552 1552 1552
1528 1530 1531 1533 1534 1536 1538 1539 1540 1542 1543 1543 1544 1545 1545 1546 1546 1547 1547 1548 1549 1549 1550 1550 1551 1551 1551 1551 1551 1552 1552 1551 1551 1551 1552 1552 1552 1551 1551 1552 1551 1551 1551
1526 1528 1530 1531 1533 1534 1536 1538 1539 1540 1541 1542 1543 1543 1544 1544 1545 1546 1546 1547 1548 1548 1549 1549 1550 1550 1550 1550 1550 1550 1550 1550 1550 1550 1550 1550 1550 1550 1550 1550 1550 1550 1549
1525 1526 1528 1530 1531 1533 1535 1536 1537 1539 1540 1540 1541 1542 1543 1543 1544 1544 1545 1546 1546 1547 1547 1548 1548 1549 1549 1549 1549 1549 1549 1549 1549 1549 1548 1548 1548 1548 1548 1548 1548 1548 1548
1524 1525 1526 1528 1530 1531 1533 1534 1536 1537 1538 1539 1540 1540 1541 1542 1542 1543 1543 1544 1545 1545 1546 1546 1547 1547 1547 1547 1547 1547 1547 1547 1547 1547 1547 1547 1547 1547 1547 1547 1547 1547 1547
1522 1524 1525 1526 1527 1529 1531 1532 1534 1535 1536 1537 1538 1539 1539 1540 1541 1541 1542 1542 1543 1544 1544 1545 1545 1545 1546 1546 1546 1546 1545 1545 1545 1545 1545 1545 1545 1545 1545 1545 1545 1545 1545
1521 1522 1523 1524 1525 1527 1529 1530 1532 1533 1534 1535 1536 1537 1538 1538 1539 1540 1540 1541 1541 1542 1542 1543 1543 1543 1544 1544 1544 1544 1544 1543 1543 1543 1543 1543 1543 1543 1543 1543 1543 1543 1543
1520 1520 1521 1522 1524 1525 1527 1528 1530 1531 1532 1533 1534 1535 1535 1536 1537 1538 1538 1539 1539 1540 1540 1541 1541 1541 1541 1542 1542 1542 1541 1541 1541 1541 1541 1541 1541 1541 1541 1541 1541 1541 1541
1518 1519 1519 1520 1522 1523 1525 1526 1528 1529 1530 1531 1532 1532 1533 1534 1534 1535 1535 1536 1537 1537 1538 1539 1539 1539 1539 1539 1539 1539 1539 1539 1539 1539 1539 1539 1539 1539 1539 1539 1539 1539 1539
1516 1517 1518 1519 1520 1521 1523 1524 1526 1527 1528 1529 1530 1530 1531 1531 1532 1532 1533 1533 1534 1535 1536 1536 1536 1537 1537 1537 1537 1537 1537 1537 1537 1537 1537 1537 1537 1537 1537 1537 1537 1537 1536
1515 1515 1516 1517 1518 1519 1520 1522 1523 1525 1526 1527 1527 1528 1528 1529 1529 1530 1530 1531 1531 1532 1533 1533 1534 1534 1534 1534 1534 1534 1534 1534 1534 1534 1534 1534 1534 1534 1534 1534 1534 1534 1534
1513 1514 1514 1515 1516 1517 1518 1519 1521 1522 1523 1524 1525 1525 1526 1526 1527 1527 1527 1528 1529 1529 1530 1530 1531 1531 1531 1532 1532 1532 1532 1531 1531 1531 1531 1531 1531 1531 1531 1531 1531 1531 1530
1512 1512 1513 1513 1514 1514 1516 1517 1518 1519 1520 1521 1521 1522 1522 1523 1523 1524 1524 1524 1525 1526 1526 1527 1527 1527 1528 1528 1528 1528 1528 1528 1528 1528 1528 1528 1528 1528 1528 1528 1527 1527 1527
1510 1511 1511 1511 1512 1512 1513 1514 1515 1516 1516 1517 1518 1519 1519 1519 1520 1520 1520 1521 1521 1522 1522 1522 1523 1523 1524 1524 1524 1524 1524 1524 1524 1524 1524 1524 1524 1524 1524 1524 1524 1523 1523
1507 1508 1508 1509 1509 1510 1511 1511 1512 1512 1514 1514 1515 1515 1515 1516 1516 1517 1517 1517 1517 1518 1518 1518 1519 1519 1519 1520 1520 1520 1520 1520 1520 1520 1520 1520 1520 1520 1520 1520 1520 1519 1519
1504 1505 1505 1505 1506 1507 1507 1507 1508 1509 1510 1511 1511 1511 1512 1512 1512 1513 1513 1513 1513 1513 1513 1513 1514 1514 1515 1515 1515 1516 1516 1516 1516 1516 1516 1515 1516 1516 1516 1516 1515 1515 1515
1501 1501 1501 1502 1502 1503 1504 1504 1504 1505 1506 1506 1506 1507 1507 1508 1508 1508 1508 1508 1508 1508 1508 1508 1508 1509 1509 1510 1510 1510 1511 1511 1511 1511 1511 1511 1511 1511 1511 1511 1511 1511 1510
1498 1498 1498 1498 1498 1499 1500 1500 1501 1501 1501 1502 1502 1502 1503 1503 1503 1504 1503 1503 1503 1503 1503 1503 1503 1503 1504 1504 1505 1505 1505 1506 1506 1506 1506 1506 1506 1506 1506 1506 1506 1506 1506
1494 1494 1494 1494 1494 1495 1495 1495 1496 1496 1497 1497 1497 1497 1498 1498 1498 1498 1498 1498 1498 1498 1498 1498 1498 1498 1498 1499 1500 1500 1500 1500 1500 1500 1500 1500 1500 1500 1500 1500 1500 1500 1500
1490 1489 1489 1489 1490 1490 1490 1491 1491 1492 1492 1492 1492 1492 1493 1493 1493 1493 1493 1493 1494 1494 1494 1494 1493 1493 1493 1493 1494 1494 1495 1495 1495 1495 1494 1494 1494 1494 1494 1494 1494 1495 1494